Regional Weather Roundup
Issued by NWS Little Rock, AR

Home | Current Version | Previous Version | Graphics & Text | Print | Product List | Glossary On
Versions: 1 2 3 4 5 6 7 8 9 10 11 12 13 14 15 16 17 18 19 20 21 22 23 24 25 26 27 28 29 30 31
000
ASUS44 KLZK 211505
RWRLZK

WEATHER ROUNDUP FOR ARKANSAS
NATIONAL WEATHER SERVICE LITTLE ROCK AR
900 AM CST SAT JAN 21 2017

NOTE: "FAIR" INDICATES FEW OR NO CLOUDS BELOW 12,000 FEET WITH NO
SIGNIFICANT WEATHER AND/OR OBSTRUCTIONS TO VISIBILITY.

ARZ001-003-010-029-211600-
NORTHWEST ARKANSAS

CITY           SKY/WX    TMP DP  RH WIND       PRES   REMARKS
FAYETTEVILLE   SUNNY     52  44  74 CALM      29.59R
FORT SMITH     SUNNY     48  42  80 NE6       29.60R
HARRISON       SUNNY     57  43  59 S7        29.59R
BENTONVILLE    SUNNY    N/A N/A N/A S6        29.59R
ROGERS         SUNNY     54  41  61 S7        29.59R
SILOAM SPGS    SUNNY     52  39  62 SW6       29.58R
HIGHFILL       SUNNY     50  42  74 S3        29.57R
SPRINGDALE     SUNNY     52  43  71 SE5       29.60R
$$

ARZ004-005-016-211600-
NORTH CENTRAL ARKANSAS

CITY           SKY/WX    TMP DP  RH WIND       PRES   REMARKS
BATESVILLE     SUNNY     61  52  72 S8        29.63S
FLIPPIN        SUNNY     55  45  67 CALM      29.58R
MTN HOME       SUNNY     56  45  66 SE3       29.59R
$$

ARZ040-041-211600-
WEST CENTRAL ARKANSAS

CITY           SKY/WX    TMP DP  RH WIND       PRES   REMARKS
MENA           PTSUNNY   50  50 100 CALM      29.63R
MOUNT IDA      MOSUNNY   49  47  93 CALM      29.60R
$$

ARZ009-017-025-026-028-211600-
NORTHEAST ARKANSAS

CITY           SKY/WX    TMP DP  RH WIND       PRES   REMARKS
CORNING        FAIR      59  55  88 S12       29.63S
JONESBORO      SUNNY     60  55  83 S10       29.64S
NEWPORT        MOSUNNY   58  55  90 MISG      29.65
WALNUT RIDGE   SUNNY     57  52  82 S13       29.62S
BLYTHEVILLE    CLOUDY    60  54  80 S7        29.66R
$$

ARZ022-023-033-042-044-211600-
CENTRAL ARKANSAS

CITY           SKY/WX    TMP DP  RH WIND       PRES   REMARKS
LITTLE ROCK    MOSUNNY   55  54  96 CALM      29.64R
N LITTLE ROCK    N/A     59  54  85 CALM      29.65R
JACKSONVILLE   SUNNY     56  55  94 CALM      29.63S
SEARCY         SUNNY     56  54  93 CALM      29.67R
HOT SPRINGS    SUNNY     53  51  93 W3        29.62S
RUSSELLVILLE   SUNNY     54  48  80 CALM      29.61R
CLINTON        FAIR      45  43  93 CALM      29.64R FOG
$$

ARZ036-211600-
EAST ARKANSAS

CITY           SKY/WX    TMP DP  RH WIND       PRES   REMARKS
WEST MEMPHIS   SUNNY     62  55  77 S10       29.66R
$$

ARZ050-053-066-070-073-211600-
SOUTHWEST ARKANSAS

CITY           SKY/WX    TMP DP  RH WIND       PRES   REMARKS
ARKADELPHIA    FAIR      51  50  96 CALM      29.63F
CAMDEN         SUNNY     59  55  88 SE3       29.62F
TEXARKANA      MOSUNNY   60  59  96 S7        29.60S
EL DORADO      SUNNY     58  57  97 SE7       29.63F
DE QUEEN       CLOUDY    52  52 100 CALM      29.63R
$$

ARZ056-057-069-211600-
SOUTHEAST ARKANSAS

CITY           SKY/WX    TMP DP  RH WIND       PRES   REMARKS
PINE BLUFF     SUNNY     60  56  86 S7        29.65R
STUTTGART      SUNNY     61  52  72 S9        29.67R
MONTICELLO     SUNNY     60  55  83 SE9       29.66R

$$






USA.gov is the U.S. government's official web portal to all federal, state and local government web resources and services.